CW4517 Weather Reports


time (UTC)temp
C
wind
direction
speed
KPH
gust
KPH
rain 1hr
cm
rain 24hr
cm
rain mn
cm
humidity
%
barometer
mb
20260505032323 15 218 8.0 16.1 0.00 0.00 0.00 83 997.9
20260505032040 15 221 8.0 16.1 0.00 0.00 0.00 82 997.6
20260505031530 15 200 8.0 16.1 0.00 0.00 0.00 82 997.6
20260505031026 15 182 6.4 16.1 0.00 0.00 0.00 82 997.6
20260505030252 15 204 4.8 16.1 0.00 0.00 0.00 81 997.3
20260505025741 15 215 4.8 11.3 0.00 0.00 0.00 81 997.3
20260505025227 15 228 4.8 12.9 0.00 0.00 0.00 81 997.3
20260505024941 15 239 3.2 11.3 0.00 0.00 0.00 82 997.4
20260505024202 14 165 3.2 9.7 0.00 0.00 0.00 83 997.4
20260505023649 14 168 3.2 9.7 0.00 0.00 0.00 83 997.4
20260505023138 14 141 3.2 9.7 0.00 0.00 0.00 82 997.5
20260505022626 14 182 3.2 9.7 0.00 0.00 0.00 82 997.5
20260505022113 15 152 4.8 11.3 0.00 0.00 0.00 82 997.5
20260505021609 14 177 4.8 11.3 0.00 0.00 0.00 82 997.0
20260505021058 15 186 4.8 9.7 0.00 0.00 0.00 82 997.0
20260505020552 15 151 4.8 11.3 0.00 0.00 0.00 82 997.0
20260505020042 15 197 8.0 12.9 0.00 0.00 0.00 81 997.0
20260505015538 15 207 8.0 22.5 0.00 0.00 0.00 81 997.0
20260505015515 15 228 9.7 22.5 0.00 0.00 0.00 81 997.0
20260505014526 15 213 11.3 20.9 0.00 0.00 0.00 82 997.6
20260505014021 14 253 12.9 38.6 0.00 0.00 0.00 82 997.6
20260505013509 14 202 14.5 38.6 0.00 0.00 0.00 83 997.6
20260505013008 14 243 17.7 41.8 0.00 0.00 0.00 83 998.0
20260505012729 14 223 16.1 41.8 0.00 0.00 0.00 84 998.0
20260505011956 14 247 19.3 43.5 0.00 0.00 0.00 83 998.0
20260505011450 15 243 16.1 43.5 0.00 0.00 0.00 82 996.9
20260505010940 15 215 9.7 30.6 0.00 0.00 0.00 81 996.9
20260505010438 15 251 8.0 16.1 0.00 0.00 0.00 80 996.7
20260505010149 15 233 8.0 14.5 0.00 0.00 0.00 81 996.7
20260505005426 15 201 8.0 19.3 0.00 0.00 0.00 83 996.7
20260505005139 15 171 11.3 20.9 0.00 0.00 0.00 83 996.3
20260505004415 15 208 12.9 30.6 0.00 0.00 0.00 82 996.3
20260505003909 16 178 9.7 30.6 0.00 0.00 0.00 81 996.3
20260505003359 17 244 6.4 20.9 0.00 0.00 0.00 78 996.1
20260505002857 18 281 8.0 20.9 0.00 0.00 0.00 77 996.1
20260505002351 18 276 8.0 19.3 0.00 0.00 0.00 74 996.1
20260505001839 19 286 11.3 27.4 0.00 0.00 0.00 72 996.0
20260505001338 20 252 11.3 27.4 0.00 0.00 0.00 70 996.0
20260505000832 20 306 9.7 22.5 0.00 0.00 0.00 70 996.0
20260505000544 20 292 11.3 29.0 0.00 0.00 0.00 69 994.7
20260504235821 20 224 11.3 29.0 0.00 0.00 0.00 69 994.7
20260504235314 20 232 11.3 22.5 0.00 0.00 0.00 68 994.7
20260504234808 20 201 12.9 24.1 0.00 0.00 0.00 67 995.1
20260504234301 20 213 14.5 37.0 0.00 0.00 0.00 67 995.1
20260504233756 19 209 12.9 37.0 0.00 0.00 0.00 70 995.1
20260504233246 20 184 12.9 24.1 0.00 0.00 0.00 70 994.9
20260504233006 20 236 11.3 24.1 0.00 0.00 0.00 69 994.9
20260504232237 19 238 14.5 33.8 0.00 0.00 0.00 72 994.9
20260504231727 19 186 17.7 43.5 0.00 0.00 0.00 71 994.8
20260504231225 20 229 14.5 43.5 0.00 0.00 0.00 69 994.8
20260504230719 21 199 9.7 19.3 0.00 0.00 0.00 66 994.8
20260504230432 21 226 9.7 29.0 0.00 0.00 0.00 64 995.7
20260504225659 21 208 6.4 29.0 0.00 0.00 0.00 65 995.7
20260504225424 21 252 4.8 11.3 0.00 0.00 0.00 64 995.7
20260504224923 22 245 6.4 16.1 0.00 0.00 0.00 60 995.1
20260504224159 23 273 9.7 20.9 0.00 0.00 0.00 56 995.1
20260504223700 23 269 14.5 35.4 0.00 0.00 0.00 54 995.1
20260504223204 23 247 17.7 37.0 0.00 0.00 0.00 53 994.9
20260504222700 23 232 16.1 37.0 0.00 0.00 0.00 53 994.9
20260504222159 23 217 16.1 33.8 0.00 0.00 0.00 53 994.9
20260504221659 23 223 14.5 33.8 0.00 0.00 0.00 53 995.2
20260504221416 23 215 12.9 33.8 0.00 0.00 0.00 52 995.2
20260504220642 24 227 14.5 27.4 0.00 0.00 0.00 52 995.2
20260504220132 24 202 16.1 32.2 0.00 0.00 0.00 51 995.2
20260504215626 24 215 17.7 40.2 0.00 0.00 0.00 49 995.2
20260504215119 24 248 17.7 40.2 0.00 0.00 0.00 48 995.2
20260504214833 24 207 17.7 40.2 0.00 0.00 0.00 48 995.1
20260504214326 25 231 19.3 40.2 0.00 0.00 0.00 47 995.1
20260504213824 25 222 19.3 38.6 0.00 0.00 0.00 47 995.1
20260504213056 25 230 17.7 37.0 0.00 0.00 0.00 46 995.4
20260504212546 25 200 17.7 37.0 0.00 0.00 0.00 46 995.4
20260504212306 25 227 19.3 37.0 0.00 0.00 0.00 46 995.4
20260504211538 25 199 19.3 37.0 0.00 0.00 0.00 47 995.6
20260504211032 25 187 17.7 33.8 0.00 0.00 0.00 49 995.6
20260504210526 25 175 16.1 43.5 0.00 0.00 0.00 47 995.6
20260504210020 25 238 19.3 43.5 0.00 0.00 0.00 45 995.9
20260504205515 25 196 19.3 38.6 0.00 0.00 0.00 47 995.9
20260504205009 25 227 17.7 35.4 0.00 0.00 0.00 47 995.9
20260504204501 26 169 19.3 45.1 0.00 0.00 0.00 47 995.7
20260504203955 26 201 19.3 45.1 0.00 0.00 0.00 47 995.7
20260504203450 26 211 17.7 35.4 0.00 0.00 0.00 43 995.9
20260504202939 26 220 17.7 35.4 0.00 0.00 0.00 42 995.9
20260504202656 26 189 14.5 33.8 0.00 0.00 0.00 42 995.9
20260504201931 26 248 14.5 29.0 0.00 0.00 0.00 42 996.1
20260504201425 26 213 16.1 29.0 0.00 0.00 0.00 41 996.1
20260504201136 26 225 14.5 29.0 0.00 0.00 0.00 41 996.1
20260504200415 25 239 14.5 29.0 0.00 0.00 0.00 38 996.4
20260504195904 25 241 16.1 32.2 0.00 0.00 0.00 43 996.4
20260504195402 25 212 14.5 32.2 0.00 0.00 0.00 42 996.4
20260504195124 26 213 14.5 37.0 0.00 0.00 0.00 38 996.4
20260504194359 26 233 12.9 37.0 0.00 0.00 0.00 38 996.4
20260504194122 26 210 11.3 37.0 0.00 0.00 0.00 40 996.4
20260504193359 25 197 12.9 37.0 0.00 0.00 0.00 40 996.4
20260504193122 26 235 16.1 40.2 0.00 0.00 0.00 38 996.4
20260504192355 25 255 17.7 40.2 0.00 0.00 0.00 39 996.4
20260504191854 25 240 16.1 46.7 0.00 0.00 0.00 40 996.4
20260504191354 26 263 16.1 46.7 0.00 0.00 0.00 39 996.4
20260504190854 26 271 16.1 33.8 0.00 0.00 0.00 41 996.4
20260504190352 25 209 16.1 41.8 0.00 0.00 0.00 40 996.7
20260504190117 25 237 17.7 41.8 0.00 0.00 0.00 41 996.7
20260504185351 25 225 17.7 33.8 0.00 0.00 0.00 41 996.7
20260504185114 25 187 16.1 33.8 0.00 0.00 0.00 43 996.9
20260504184350 25 262 17.7 35.4 0.00 0.00 0.00 43 996.9
20260504183851 25 221 17.7 35.4 0.00 0.00 0.00 44 996.9
20260504183610 25 222 16.1 30.6 0.00 0.00 0.00 45 997.0
20260504182847 25 228 16.1 32.2 0.00 0.00 0.00 47 997.0
20260504182338 25 282 16.1 32.2 0.00 0.00 0.00 44 997.0
20260504182324 24 212 16.1 35.4 0.00 0.00 0.00 44 997.0
20260504181338 24 235 16.1 35.4 0.00 0.00 0.00 45 997.0
20260504180838 24 232 16.1 37.0 0.00 0.00 0.00 45 997.0
20260504180339 24 232 16.1 37.0 0.00 0.00 0.00 46 997.3
20260504180105 24 204 17.7 35.4 0.00 0.00 0.00 47 997.3
20260504175338 24 294 16.1 30.6 0.00 0.00 0.00 48 997.3
20260504174841 23 232 14.5 25.7 0.00 0.00 0.00 51 997.5
20260504174340 23 248 14.5 37.0 0.00 0.00 0.00 51 997.5
20260504174101 23 221 14.5 37.0 0.00 0.00 0.00 52 997.5
20260504173333 23 236 14.5 27.4 0.00 0.00 0.00 54 997.9
20260504172822 23 220 14.5 32.2 0.00 0.00 0.00 53 997.9
20260504172321 22 207 14.5 32.2 0.00 0.00 0.00 54 997.9
20260504171815 23 234 12.9 24.1 0.00 0.00 0.00 53 998.0
20260504171310 23 238 12.9 24.1 0.00 0.00 0.00 53 998.0
20260504170803 22 271 14.5 33.8 0.00 0.00 0.00 52 998.0
20260504170253 22 259 14.5 33.8 0.00 0.00 0.00 52 998.1
20260504160359 21 233 12.9 29.0 0.00 0.00 0.00 60 999.1
20260504151130 20 219 12.9 25.7 0.00 0.00 0.00 59 999.6
20260504150631 19 232 12.9 24.1 0.00 0.00 0.00 58 999.6
20260504150130 19 219 11.3 20.9 0.00 0.00 0.00 59 999.7
20260504141110 16 223 9.7 20.9 0.00 0.00 0.00 67 1000.2
20260504140831 16 225 8.0 20.9 0.00 0.00 0.00 67 1000.2
20260504140109 16 216 8.0 17.7 0.00 0.00 0.00 68 1000.4
20260504130752 13 211 6.4 12.9 0.00 0.00 0.00 76 1000.8
20260504110323 8 205 4.8 11.3 0.00 0.00 0.00 84 1001.1
20260504100321 8 186 4.8 11.3 0.00 0.00 0.00 84 1001.3
20260504090122 8 208 4.8 9.7 0.00 0.00 0.00 82 1001.3
20260504081526 9 215 6.4 11.3 0.00 0.00 0.00 80 1001.4
20260504081022 9 209 6.4 11.3 0.00 0.00 0.00 81 1001.4
20260504080516 9 215 4.8 11.3 0.00 0.00 0.00 81 1001.4
20260504050736 11 211 6.4 11.3 0.00 0.00 0.00 74 1002.8
20260504050230 11 232 6.4 11.3 0.00 0.00 0.00 73 1002.7
20260504045719 11 219 6.4 12.9 0.00 0.00 0.00 73 1002.7
20260504045215 12 216 4.8 12.9 0.00 0.00 0.00 72 1002.7
20260504044712 12 198 6.4 11.3 0.00 0.00 0.00 72 1002.8
20260504044212 12 226 4.8 11.3 0.00 0.00 0.00 72 1002.8
20260504043711 12 232 4.8 11.3 0.00 0.00 0.00 72 1002.8
20260504043212 12 207 4.8 11.3 0.00 0.00 0.00 72 1002.9
20260504042711 12 219 4.8 11.3 0.00 0.00 0.00 72 1002.9
20260504042435 12 209 4.8 11.3 0.00 0.00 0.00 72 1002.9
20260504041712 12 208 4.8 6.4 0.00 0.00 0.00 72 1003.1
20260504041211 12 235 3.2 8.0 0.00 0.00 0.00 72 1003.1
20260504040711 12 221 3.2 8.0 0.00 0.00 0.00 72 1003.1
20260504040207 12 215 3.2 8.0 0.00 0.00 0.00 72 1003.3
20260504035653 12 196 3.2 8.0 0.00 0.00 0.00 72 1003.3
20260504035145 12 208 4.8 8.0 0.00 0.00 0.00 72 1003.3
20260504034640 12 230 4.8 11.3 0.00 0.00 0.00 72 1003.4
20260504034133 12 212 4.8 11.3 0.00 0.00 0.00 72 1003.4
20260504033627 12 204 4.8 9.7 0.00 0.00 0.00 72 1003.4
20260504033117 12 225 4.8 8.0 0.00 0.00 0.00 71 1003.5
20260504032615 12 241 4.8 8.0 0.00 0.00 0.00 71 1003.5